Temperature
17 17 17 17 17 17 17 17 18 18 18 18 18 18 18 18 18 18 18 18 18 18 18 18 18 18 18 18 18 18 18 18 18 18 18 18 18 18 18 18 18 18 18
18 17 17 17 17 17 17 17 18 18 17 17 18 18 18 18 18 18 18 18 18 18 18 18 18 18 18 18 18 18 18 18 18 18 18 18 18 18 18 18 18 18 18
18 17 17 17 17 17 17 17 17 17 17 17 17 17 17 17 17 17 17 17 17 18 18 18 18 18 18 18 18 18 18 18 18 18 18 18 18 18 18 18 18 18 18
18 18 17 17 17 17 17 17 17 17 17 17 17 17 17 17 17 17 17 17 17 17 17 17 18 18 18 18 18 18 18 18 18 18 18 18 17 18 18 18 18 18 18
18 18 17 17 17 17 17 17 17 17 17 17 17 17 17 17 17 17 17 17 17 17 17 17 17 17 17 17 17 18 17 17 18 18 18 18 17 17 17 17 17 17 17
18 18 17 17 17 17 17 17 17 17 17 17 17 17 17 17 17 17 17 17 17 17 17 17 17 17 17 17 17 17 17 17 17 17 17 17 17 17 17 17 17 17 17
18 18 17 17 17 17 17 17 17 17 17 17 17 17 17 17 17 17 17 17 17 17 17 17 17 17 17 17 17 17 17 17 17 17 17 17 17 17 17 17 17 17 17
18 18 17 17 17 17 17 17 17 17 17 17 17 17 17 17 17 17 17 17 17 17 17 17 17 17 17 17 17 17 17 17 17 17 17 17 17 17 17 17 17 17 17
18 18 17 17 17 17 17 17 17 17 17 17 17 17 17 17 17 17 17 17 17 17 17 17 17 17 17 17 17 17 17 17 17 17 17 16 16 16 16 16 17 17 17
18 18 18 17 17 17 17 17 17 17 17 17 17 17 17 17 17 16 16 17 16 16 16 16 16 16 16 16 16 16 17 17 16 16 16 16 16 16 16 16 16 16 16
18 18 17 17 17 17 17 17 17 16 16 16 16 16 16 16 16 16 16 16 16 16 16 16 16 16 16 16 16 16 16 16 16 16 16 16 16 16 16 16 16 16 16
18 18 17 17 17 17 17 17 17 16 16 16 16 16 16 16 16 16 16 16 16 16 16 16 16 16 16 16 16 16 16 16 16 16 16 16 16 16 16 16 16 16 16
18 18 18 17 17 17 17 17 17 16 16 16 16 16 16 16 16 16 16 16 16 16 16 16 16 16 16 16 16 16 16 16 16 16 16 16 16 16 16 16 16 16 16
18 18 18 17 17 17 17 17 16 16 16 16 16 16 16 16 16 16 16 16 16 16 16 16 16 16 16 16 16 16 16 16 16 16 16 15 15 15 15 15 15 15 15
18 18 18 17 17 17 17 17 16 16 16 16 16 16 16 16 16 16 16 16 16 16 16 16 16 16 16 16 16 16 16 15 15 15 15 15 15 15 15 15 15 15 15
18 18 18 17 17 17 17 17 16 16 16 16 16 16 16 16 16 16 16 16 16 15 15 16 16 16 15 15 15 15 15 15 15 15 15 15 15 15 15 15 15 15 15
18 18 18 17 17 17 17 17 16 16 16 16 16 16 16 16 16 16 16 16 15 15 15 15 15 15 15 15 15 15 15 15 15 15 15 15 15 15 15 14 15 15 15
18 18 18 18 17 17 17 16 16 16 16 16 16 16 16 16 16 16 15 15 15 15 15 15 15 15 15 15 15 15 15 15 15 15 15 15 15 15 15 15 14 15 15
19 18 18 18 17 17 17 16 16 16 16 16 16 16 16 15 15 15 15 15 15 15 15 15 15 15 15 15 14 14 14 15 15 14 14 14 14 14 14 14 14 14 14
19 18 18 18 17 17 17 16 16 16 16 16 16 15 15 15 15 15 15 15 15 15 15 14 14 14 14 14 14 14 14 14 14 14 14 14 14 14 14 14 14 14 14
18 18 18 18 17 17 17 16 16 16 16 16 16 15 15 15 15 15 15 15 15 15 14 14 14 14 14 14 14 14 14 14 14 14 14 14 14 14 14 14 14 14 14
19 18 18 18 17 17 17 16 16 16 16 15 15 15 15 15 15 15 15 15 15 14 14 14 14 14 14 14 14 14 13 13 13 13 13 13 14 13 13 13 13 13 14
19 18 18 18 17 17 17 16 16 16 15 15 15 15 15 15 15 15 15 15 14 14 14 14 14 14 14 14 14 14 14 13 13 13 13 13 13 13 13 13 13 13 13
19 18 18 18 17 17 17 16 16 16 15 15 15 15 15 15 15 15 14 14 14 14 14 14 14 14 14 14 14 14 14 14 13 13 13 13 13 13 13 13 13 13 13
19 18 18 18 17 17 17 16 16 16 15 15 15 15 15 15 15 14 14 14 14 14 14 14 14 14 14 14 14 14 14 14 14 13 13 13 13 13 13 13 13 13 13
19 18 18 18 17 17 17 16 16 16 15 15 15 15 15 15 14 14 14 14 14 14 14 14 14 14 14 14 14 14 14 14 14 14 13 13 13 13 13 13 13 12 13
Wind_Speed
2 2 4 5 5 5 6 7 7 8 8 8 8 8 9 9 9 8 8 9 9 9 10 10 11 11 11 11 10 10 10 10 10 10 9 9 9 9 9 9 9 8 10
5 4 6 6 6 6 6 6 6 7 8 8 8 8 8 9 9 9 8 9 9 10 10 10 11 11 11 11 10 10 10 10 10 10 9 8 8 8 9 9 9 8 10
6 5 6 7 7 7 6 6 7 7 7 8 8 8 8 8 8 8 9 9 9 10 10 10 10 11 11 10 10 10 10 10 10 9 8 7 7 9 9 9 9 9 9
8 7 7 8 7 7 7 7 7 8 8 8 8 8 8 8 8 8 9 9 9 10 10 10 10 10 10 10 10 10 10 10 10 9 7 6 6 8 9 8 8 8 8
7 7 8 9 8 7 7 7 7 8 8 8 8 8 7 8 8 9 9 9 10 10 10 9 10 10 10 10 10 10 10 10 10 9 7 6 6 9 9 9 8 8 8
6 7 8 9 8 7 7 7 7 7 7 8 8 8 8 9 9 9 9 10 10 10 10 10 10 10 10 10 10 11 11 10 10 8 7 7 7 9 10 9 9 8 7
6 7 8 9 8 7 7 7 7 7 7 7 8 8 9 9 9 9 10 10 10 10 10 10 10 10 10 10 10 10 10 10 8 7 7 7 8 10 10 10 9 9 8
7 7 7 8 8 7 7 7 7 7 7 7 7 7 8 9 9 9 9 9 9 9 9 9 9 9 10 10 10 10 9 9 8 8 7 7 9 10 11 10 10 9 9
7 6 5 6 7 6 6 6 6 6 6 6 7 7 7 8 9 9 9 9 9 9 9 8 8 9 9 10 10 10 10 10 8 6 7 7 9 10 11 10 10 9 9
5 5 4 4 4 5 5 5 5 6 6 6 7 7 7 7 8 8 8 8 8 9 9 8 8 8 8 9 10 10 10 9 7 7 6 7 9 10 11 10 10 10 10
4 4 4 4 3 4 4 3 4 5 5 6 6 7 6 6 6 6 7 7 7 7 7 7 7 7 8 9 10 10 9 7 6 6 6 8 10 11 11 10 10 10 10
4 4 4 4 4 4 3 3 3 3 4 4 4 5 5 5 5 5 6 7 8 7 7 7 7 7 7 8 9 9 7 7 6 5 7 9 10 10 10 10 10 10 10
4 4 4 4 4 3 3 3 2 3 3 4 4 4 4 4 4 4 4 4 5 7 7 7 8 7 7 6 7 7 7 7 6 5 6 9 10 10 11 10 10 9 9
4 4 4 5 5 4 4 3 3 3 3 3 3 5 5 3 2 3 3 4 5 5 6 6 6 8 8 8 8 7 7 7 7 7 8 9 9 10 10 10 9 9 9
5 3 4 5 5 4 4 3 3 3 3 4 4 5 6 4 2 3 3 4 5 6 6 5 6 6 6 7 7 7 6 7 7 7 7 9 9 9 9 9 9 8 8
5 4 4 5 5 5 4 3 2 3 4 5 4 5 6 5 4 4 3 4 5 6 7 6 6 5 5 5 5 6 6 7 7 7 7 8 8 9 8 8 8 8 8
7 6 5 6 5 5 4 3 3 4 5 4 4 6 7 7 6 5 4 3 4 7 8 7 6 6 5 5 5 4 5 5 6 6 6 7 7 8 8 8 8 8 8
7 7 6 7 6 5 4 4 4 4 5 4 5 6 7 7 8 6 4 3 5 6 6 4 4 4 4 4 3 3 4 4 5 5 6 7 7 7 8 8 7 7 6
8 8 7 6 6 5 4 4 4 4 4 4 5 5 6 7 8 7 4 3 5 5 3 4 4 4 4 4 3 3 3 3 3 5 5 5 7 7 7 7 7 7 7
8 7 7 6 6 5 4 4 3 3 2 3 4 4 5 6 7 7 5 4 5 4 3 3 4 4 3 3 4 4 3 3 3 3 3 4 5 6 6 6 6 6 7
7 7 7 7 5 5 3 3 3 2 1 1 2 4 5 6 7 6 4 4 4 4 3 4 3 4 3 2 4 4 4 4 4 3 2 3 3 4 5 6 6 6 6
8 8 7 7 6 5 4 3 3 3 2 1 1 3 4 5 6 6 4 3 3 4 4 4 4 3 1 2 3 3 2 3 3 3 2 2 2 3 3 4 5 5 5
8 9 8 7 6 5 4 3 3 3 2 2 1 1 1 3 4 6 5 4 3 3 4 3 4 4 2 0 1 3 3 2 1 2 2 1 1 1 1 2 3 4 4
9 8 8 7 7 5 5 5 5 4 3 3 2 1 0 2 3 5 5 5 4 3 4 3 3 2 3 2 0 1 2 4 3 0 2 2 1 1 1 1 2 3 3
8 8 7 8 6 5 6 6 6 4 2 2 1 2 1 0 1 2 4 4 4 3 3 3 3 3 3 3 2 1 1 1 2 3 1 2 2 1 0 1 2 2 3
7 7 7 7 6 5 6 6 6 5 4 4 2 2 1 1 0 1 2 3 2 2 2 3 3 3 3 2 2 2 3 2 2 3 3 2 1 2 1 0 1 2 3
Wind_Direction
201 184 110 98 94 86 82 80 75 72 71 72 72 73 74 76 79 80 84 93 96 95 93 90 89 88 89 95 96 95 99 103 104 102 104 108 111 112 114 113 112 112 113
165 152 118 107 100 94 87 84 78 74 72 71 76 76 76 78 83 86 88 93 95 95 95 92 91 88 89 92 94 95 98 102 100 97 96 103 110 112 114 114 114 117 117
141 137 123 114 105 98 92 90 83 77 74 70 74 76 78 80 84 90 92 94 97 96 96 93 91 90 89 90 92 93 95 97 94 91 86 89 102 110 116 119 116 116 119
139 136 128 120 112 105 97 94 87 81 76 73 72 75 78 81 88 93 94 95 95 96 94 92 90 91 90 90 90 90 90 89 89 88 80 83 97 110 115 116 115 116 117
134 138 133 125 119 113 105 100 93 87 82 78 76 77 80 83 90 97 97 97 94 94 93 90 90 91 92 90 89 89 89 85 82 79 79 82 94 107 112 108 108 112 116
139 142 135 127 123 118 110 105 101 95 88 84 84 82 82 87 91 94 99 98 95 95 95 93 92 91 90 89 90 88 87 82 78 77 83 89 100 105 106 105 107 107 112
144 145 143 137 131 124 116 109 105 102 95 90 89 84 84 87 90 93 96 96 96 95 94 93 91 91 91 91 91 89 87 83 82 81 84 88 103 108 107 104 101 99 101
146 150 149 144 140 133 125 115 107 105 102 97 95 91 88 87 89 92 97 98 99 99 98 94 92 91 93 94 90 89 86 84 84 83 84 92 103 106 105 102 100 96 96
142 147 151 147 146 143 136 124 113 108 106 101 97 94 94 91 90 93 97 101 105 106 102 97 92 91 94 92 90 91 90 87 81 83 90 94 103 102 103 102 99 96 94
135 141 144 147 144 144 137 132 125 117 110 105 99 94 91 91 93 94 98 100 106 108 103 97 93 90 91 91 90 92 91 84 76 78 89 101 105 104 102 100 98 96 92
136 149 145 145 148 149 143 133 119 115 108 105 97 92 87 83 88 95 96 100 101 102 98 93 88 87 87 89 90 88 83 80 76 76 86 102 107 104 102 101 98 94 91
152 154 149 145 141 146 141 114 97 98 103 94 97 96 92 89 92 95 95 95 93 88 89 85 78 79 82 82 86 86 80 76 75 79 93 104 108 105 104 103 99 95 91
157 147 145 147 135 136 124 121 106 100 96 87 92 108 107 93 89 80 80 78 77 76 77 75 68 73 82 87 92 91 84 78 73 78 99 108 111 109 104 100 99 99 94
142 147 146 140 131 133 120 115 112 105 100 96 100 106 111 102 89 89 84 77 79 79 79 77 78 79 81 85 91 90 86 82 76 79 90 101 108 108 104 100 97 98 94
138 134 134 140 136 127 110 108 103 99 109 115 104 100 106 103 94 91 88 88 85 83 84 78 80 81 80 80 86 91 88 84 81 78 81 86 94 104 106 104 101 99 95
155 147 131 130 132 123 117 111 101 100 102 102 100 99 102 109 104 98 87 85 84 87 90 91 88 85 81 84 82 89 92 90 85 81 78 79 83 91 99 100 98 99 96
160 146 133 131 122 124 123 116 105 101 100 93 96 101 103 105 105 102 98 90 93 96 94 91 84 83 79 78 75 79 91 93 92 84 79 76 75 80 88 90 88 91 93
153 145 142 134 128 128 122 113 105 96 94 92 93 98 104 107 110 105 101 95 99 98 97 95 88 84 74 73 72 67 72 83 90 90 81 76 73 74 77 81 79 84 85
153 148 141 135 137 137 127 113 108 93 87 87 90 93 103 109 115 112 110 105 101 94 91 103 95 100 95 81 77 68 60 66 76 90 83 80 79 79 79 77 78 77 76
152 146 138 134 136 133 119 102 92 79 71 76 85 98 108 111 116 114 113 110 107 99 86 94 97 90 100 101 90 69 48 50 64 80 90 86 85 85 83 78 74 71 71
148 144 144 141 144 135 126 124 126 125 111 73 84 98 104 118 122 119 118 113 115 115 119 117 107 92 77 89 84 56 26 29 44 49 67 80 82 88 90 87 84 78 70
160 161 156 154 156 154 154 159 155 150 147 133 86 90 102 114 126 132 132 138 135 123 115 114 113 104 96 92 111 99 43 3 3 21 33 73 77 90 98 98 94 90 81
163 165 164 162 157 157 149 122 101 80 64 58 60 81 129 127 126 135 141 143 146 141 144 145 140 136 150 25 115 135 139 193 292 341 358 21 47 71 88 110 108 109 103
173 166 160 161 158 155 146 141 142 147 169 199 193 193 188 129 128 138 143 146 150 149 156 169 156 156 151 168 231 143 159 155 154 204 329 334 352 78 90 113 122 128 126
167 163 162 162 161 158 154 156 151 151 175 176 162 155 149 93 132 142 142 144 151 157 167 170 157 157 161 166 175 159 125 114 131 146 207 295 329 316 312 156 145 135 137
160 157 157 160 166 165 158 157 157 160 160 150 160 174 183 188 241 190 152 145 153 159 172 176 170 170 177 173 174 169 166 162 176 156 171 207 248 291 311 347 157 167 161
Height
1533 1532 1531 1529 1528 1527 1526 1526 1525 1524 1524 1523 1522 1522 1521 1521 1521 1521 1521 1521 1521 1521 1521 1522 1522 1522 1522 1523 1523 1523 1524 1524 1525 1525 1526 1526 1527 1527 1528 1528 1528 1529 1529
1533 1532 1531 1530 1528 1527 1527 1526 1525 1524 1524 1523 1522 1522 1521 1521 1521 1521 1521 1521 1521 1522 1522 1522 1523 1523 1523 1523 1524 1524 1525 1525 1526 1526 1526 1527 1527 1528 1528 1528 1529 1529 1530
1533 1532 1531 1530 1529 1528 1527 1526 1525 1525 1524 1523 1522 1522 1521 1521 1521 1521 1521 1522 1522 1522 1523 1523 1523 1524 1524 1525 1525 1525 1526 1526 1526 1527 1527 1527 1528 1528 1528 1529 1529 1529 1530
1534 1533 1532 1531 1529 1528 1527 1527 1526 1525 1524 1523 1523 1522 1521 1521 1521 1521 1522 1522 1523 1523 1524 1524 1524 1525 1525 1525 1526 1526 1526 1527 1527 1527 1528 1528 1528 1528 1528 1529 1529 1530 1530
1534 1533 1532 1531 1530 1529 1528 1527 1526 1526 1525 1524 1523 1522 1521 1521 1521 1521 1522 1523 1524 1524 1525 1525 1525 1526 1526 1526 1527 1527 1527 1528 1528 1528 1528 1528 1528 1529 1529 1529 1529 1530 1530
1535 1534 1533 1532 1531 1530 1529 1528 1527 1527 1526 1525 1523 1523 1522 1522 1522 1522 1523 1524 1524 1525 1525 1526 1526 1527 1527 1527 1528 1528 1528 1529 1529 1529 1529 1529 1529 1529 1529 1529 1529 1530 1530
1535 1535 1534 1533 1532 1531 1530 1529 1528 1528 1527 1526 1525 1524 1524 1523 1523 1524 1524 1525 1526 1526 1526 1527 1527 1528 1528 1528 1528 1529 1529 1530 1530 1530 1530 1530 1530 1530 1530 1530 1530 1530 1530
1535 1535 1535 1534 1533 1532 1532 1531 1530 1529 1528 1528 1527 1526 1526 1526 1526 1526 1526 1526 1527 1527 1528 1528 1529 1529 1529 1529 1530 1530 1530 1530 1531 1530 1530 1531 1531 1531 1531 1530 1531 1530 1531
1536 1536 1535 1535 1534 1533 1533 1532 1531 1530 1530 1529 1528 1528 1527 1527 1527 1527 1528 1528 1528 1529 1529 1529 1530 1530 1530 1531 1531 1531 1531 1531 1531 1531 1531 1531 1532 1532 1531 1531 1531 1531 1531
1537 1537 1536 1536 1535 1534 1534 1533 1532 1532 1531 1530 1530 1529 1529 1529 1529 1529 1529 1529 1530 1530 1530 1531 1531 1531 1532 1532 1532 1532 1532 1532 1532 1532 1532 1532 1532 1532 1532 1532 1532 1532 1532
1537 1537 1537 1536 1536 1535 1535 1534 1533 1533 1532 1532 1531 1531 1530 1530 1530 1530 1531 1531 1531 1531 1531 1532 1532 1532 1532 1533 1533 1533 1533 1533 1533 1533 1533 1533 1533 1533 1533 1533 1533 1533 1532
1537 1537 1537 1537 1536 1536 1535 1535 1534 1534 1534 1533 1533 1532 1532 1532 1532 1532 1532 1532 1532 1532 1532 1532 1533 1533 1533 1534 1534 1534 1534 1535 1534 1534 1534 1534 1534 1534 1534 1534 1534 1534 1533
1537 1537 1537 1537 1537 1536 1536 1536 1535 1535 1534 1534 1534 1533 1533 1533 1533 1533 1533 1533 1533 1533 1533 1534 1534 1534 1534 1535 1535 1535 1536 1535 1535 1535 1535 1535 1535 1535 1535 1534 1534 1534 1534
1537 1537 1537 1537 1537 1537 1536 1536 1536 1535 1535 1535 1534 1534 1534 1534 1533 1534 1534 1534 1534 1534 1535 1535 1535 1535 1535 1536 1536 1536 1536 1536 1537 1536 1537 1536 1536 1536 1536 1535 1535 1535 1535
1537 1537 1537 1537 1537 1537 1537 1536 1536 1536 1536 1535 1535 1535 1535 1534 1534 1534 1534 1535 1535 1535 1536 1536 1536 1536 1536 1537 1537 1537 1537 1537 1538 1537 1537 1537 1537 1537 1537 1536 1536 1536 1535
1536 1537 1537 1537 1537 1537 1537 1536 1536 1536 1536 1536 1536 1535 1535 1535 1535 1535 1535 1535 1535 1536 1536 1536 1537 1537 1537 1537 1537 1538 1538 1538 1538 1538 1538 1538 1538 1538 1538 1537 1537 1537 1536
1536 1536 1537 1537 1537 1537 1537 1537 1537 1537 1537 1536 1536 1536 1536 1536 1536 1535 1535 1535 1536 1536 1537 1537 1537 1537 1537 1538 1538 1538 1539 1539 1539 1539 1539 1539 1539 1538 1538 1538 1538 1538 1537
1535 1536 1536 1537 1537 1537 1537 1537 1537 1537 1537 1537 1537 1536 1536 1536 1536 1536 1536 1536 1536 1536 1537 1537 1537 1537 1538 1538 1538 1539 1539 1539 1539 1540 1540 1539 1539 1539 1539 1539 1538 1538 1538
1534 1535 1535 1536 1536 1536 1536 1537 1537 1537 1537 1537 1537 1537 1537 1536 1536 1536 1536 1536 1536 1536 1537 1537 1537 1537 1538 1538 1539 1539 1539 1540 1540 1540 1540 1540 1540 1540 1539 1539 1539 1538 1538
1533 1534 1535 1535 1536 1536 1536 1536 1537 1537 1537 1537 1537 1537 1537 1536 1536 1536 1536 1536 1536 1536 1537 1537 1538 1538 1538 1539 1539 1539 1540 1540 1541 1541 1541 1540 1540 1540 1540 1540 1539 1539 1538
1532 1533 1534 1534 1535 1535 1535 1536 1536 1536 1537 1537 1537 1537 1537 1536 1536 1536 1536 1536 1536 1536 1537 1537 1538 1538 1538 1539 1539 1539 1540 1541 1541 1541 1541 1541 1541 1541 1540 1540 1540 1539 1538
1530 1532 1533 1533 1534 1534 1535 1535 1536 1536 1536 1536 1536 1536 1536 1536 1536 1536 1536 1536 1536 1536 1537 1537 1537 1538 1538 1539 1539 1539 1540 1542 1541 1541 1541 1541 1541 1541 1540 1540 1540 1539 1539
1529 1530 1531 1532 1533 1534 1534 1535 1535 1536 1536 1536 1536 1536 1536 1536 1536 1536 1535 1535 1535 1536 1536 1536 1537 1537 1538 1538 1539 1540 1540 1540 1541 1542 1541 1541 1541 1540 1540 1540 1539 1539 1539
1527 1529 1530 1531 1532 1533 1533 1534 1534 1534 1534 1535 1535 1535 1535 1535 1535 1535 1535 1535 1535 1535 1536 1536 1537 1537 1537 1537 1538 1539 1539 1539 1540 1540 1541 1540 1540 1540 1540 1539 1539 1539 1538
1525 1527 1529 1530 1531 1531 1532 1532 1533 1533 1533 1534 1534 1534 1534 1534 1534 1534 1534 1534 1534 1534 1535 1535 1535 1536 1536 1537 1537 1537 1537 1538 1538 1538 1539 1539 1539 1539 1539 1539 1539 1538 1538
1524 1525 1527 1528 1529 1530 1530 1531 1531 1531 1532 1532 1532 1533 1533 1533 1533 1533 1533 1533 1533 1534 1534 1534 1534 1535 1535 1535 1536 1536 1536 1536 1536 1537 1537 1537 1538 1538 1538 1538 1538 1538 1537